Location: Baia Mare
(47.6567°N, 23.5850°E)
Time: 12:55:26
(UTC+02:00)

ISS - Pass Details

Date: 29 December 2018
Orbit: 401 x 408 km, 51.6° (Epoch: 16 December)

Event Time Altitude Azimuth Distance (km) Brightness Sun altitude
Exits shadow 05:16:57 18° 93° (E) 1,093 -0.9 -28.6°
Drops below altitude 10° 05:18:03 10° 80° (E) 1,466 -0.1 -28.4°
Sets 05:20:17 0° 70° (ENE) 2,329 1.0 -28.1°
